Theta_e
316 315 315 315 314 314 314 314 313 313 313 313 312 313 313 312 314 315 316 313 315 318 320 319 321 321 320 322 326 327 333 333 333 331 329 322 322 318 316 318 316 316 316 314 315
316 316 316 315 315 314 314 314 314 314 313 313 313 313 313 313 316 318 314 313 316 318 320 321 322 322 320 320 323 331 333 331 328 327 327 323 322 321 319 319 319 317 314 312 315
317 317 317 316 316 315 315 314 314 314 313 313 313 313 312 314 319 317 314 314 317 318 318 318 320 321 320 320 321 325 330 326 325 324 324 323 321 320 321 322 320 319 318 313 315
319 319 318 318 317 316 315 314 314 314 314 313 313 313 312 315 319 315 314 316 317 318 318 318 321 321 319 319 318 324 322 323 323 320 322 323 321 321 321 321 318 318 316 315 316
315 316 318 319 319 317 315 315 314 314 314 313 313 313 315 317 317 315 314 315 317 318 318 319 320 321 318 318 318 320 318 318 318 316 317 317 320 319 319 319 316 314 314 316 315
314 314 314 314 317 317 316 315 314 314 313 313 313 312 317 316 316 314 315 315 316 318 317 317 318 317 317 317 319 317 317 316 316 316 315 316 316 315 315 314 315 315 316 316 316
316 311 311 313 315 317 315 315 314 314 313 313 313 312 315 316 314 314 315 315 315 317 317 315 316 318 317 317 315 316 317 317 317 316 317 315 317 317 317 314 315 315 316 316 315
320 314 309 311 313 315 315 315 314 313 313 313 313 312 315 313 314 313 315 315 315 314 315 313 315 317 317 316 316 318 318 320 317 317 315 315 318 315 314 315 317 316 316 316 316
322 318 310 309 311 312 316 315 314 314 313 313 313 313 315 312 313 313 314 316 315 315 314 314 316 317 318 320 321 318 319 317 315 316 316 317 320 317 314 315 316 316 316 315 315
322 320 313 309 309 311 316 315 314 313 313 312 313 315 315 314 312 312 313 314 315 315 318 318 318 320 317 318 320 321 319 315 315 314 315 317 318 317 317 314 315 316 316 316 315
321 321 315 313 311 310 316 314 314 315 313 315 314 314 312 312 311 313 312 314 314 316 318 317 319 320 319 315 315 314 315 315 315 313 314 317 316 317 317 315 316 316 315 316 316
321 321 316 314 314 310 316 316 314 315 318 317 314 311 311 311 314 313 312 314 314 315 316 318 319 318 314 314 315 315 316 316 316 312 314 317 318 318 317 316 315 316 316 316 316
321 320 318 314 314 315 314 315 315 314 319 317 315 315 314 312 314 314 313 314 314 315 316 317 317 314 314 315 316 316 316 315 315 314 314 315 320 319 316 315 315 314 314 314 315
322 319 318 315 314 314 316 314 314 314 318 316 315 315 312 314 314 310 311 314 314 315 316 317 313 314 315 316 315 316 313 314 313 318 318 315 320 320 318 318 316 316 316 315 314
324 318 318 315 315 317 313 313 313 309 315 313 314 310 310 314 313 312 310 313 315 314 315 316 315 315 316 316 314 316 313 313 315 319 320 319 319 321 316 318 317 316 316 315 315
324 319 316 315 314 315 314 314 311 316 315 315 313 313 313 313 313 312 313 313 312 314 314 314 311 313 315 311 311 312 315 317 319 322 323 319 318 322 319 319 317 316 316 315 314
325 321 316 316 315 313 314 313 317 316 313 314 314 313 314 314 313 313 314 314 315 315 316 315 314 311 311 314 312 314 317 323 327 327 323 316 318 321 320 317 317 317 316 315 314
324 321 317 316 315 314 313 317 317 315 315 313 312 312 315 314 314 313 314 315 313 313 315 316 316 313 311 314 316 315 317 321 327 326 324 316 323 324 318 316 316 316 316 315 315
323 317 316 316 315 314 316 318 315 315 314 314 312 315 315 313 314 314 315 315 315 314 315 316 315 309 308 309 312 315 317 316 320 318 322 324 321 320 317 315 315 316 316 318 317
319 316 317 316 315 314 319 317 316 312 313 313 316 316 317 314 315 315 315 315 314 313 314 315 316 310 308 308 309 314 314 317 319 327 328 325 322 325 320 318 317 317 317 319 318
317 315 311 313 314 315 319 316 316 313 313 314 316 314 316 314 315 315 315 314 313 312 313 314 315 313 310 312 315 313 315 315 318 321 329 330 329 323 323 320 318 317 318 320 319
312 320 307 312 315 315 315 316 315 315 313 313 313 314 315 314 315 315 315 315 312 311 313 314 316 316 316 309 308 312 316 317 322 325 320 324 331 319 320 321 320 318 318 319 319
314 313 306 307 316 314 313 314 316 316 315 315 315 314 312 314 316 315 314 312 311 313 314 314 315 317 317 314 310 311 312 314 317 319 323 330 328 317 317 317 317 318 317 317 317
311 316 308 307 310 311 313 312 315 316 317 314 315 313 313 313 313 315 314 313 311 311 310 314 316 316 318 319 317 314 312 312 315 319 320 322 324 324 321 319 317 315 316 317 317
310 315 310 311 311 311 310 313 313 314 315 315 315 315 315 316 314 314 314 313 311 313 313 314 315 315 315 313 313 315 314 312 314 316 318 319 320 321 323 322 320 318 316 315 316
315 315 312 311 312 312 312 317 315 313 313 315 315 315 315 316 316 317 315 315 316 313 313 312 316 314 315 314 313 315 314 314 313 314 315 315 317 317 318 318 318 318 316 315 315
310 310 314 314 312 312 315 317 315 312 313 313 314 315 315 315 315 316 315 315 316 316 314 315 316 315 317 314 315 316 316 315 314 314 315 317 318 318 317 316 318 319 318 316 316
Wind_Speed
10 10 10 10 11 12 12 11 11 11 10 10 10 10 11 10 5 2 1 3 2 3 4 4 1 2 2 3 2 1 4 5 5 5 5 6 7 4 1 3 3 5 2 6 12
10 10 11 11 11 11 12 12 12 11 11 10 10 10 11 11 4 1 3 3 2 3 3 3 1 1 2 2 1 2 4 2 2 2 2 7 6 5 5 5 7 7 6 7 15
11 10 11 11 12 12 12 12 12 12 12 12 10 10 11 7 5 2 3 2 1 2 2 2 1 1 2 1 2 1 0 4 4 1 1 4 5 4 6 7 8 6 8 12 15
11 11 12 13 12 12 12 13 13 13 13 12 11 10 10 2 2 2 2 1 2 2 0 1 1 1 1 2 2 2 3 1 3 2 2 3 2 5 10 7 1 3 4 15 16
12 12 13 14 15 13 12 13 14 14 13 12 10 9 3 4 2 1 1 1 1 1 3 1 0 2 3 3 2 1 3 2 2 2 1 2 6 8 10 8 7 4 8 12 15
14 14 15 15 15 15 13 13 14 14 13 11 8 7 3 6 2 1 1 2 2 2 3 2 2 1 4 2 1 2 2 2 2 2 2 4 3 3 2 1 9 10 11 10 14
16 16 16 16 17 15 14 13 13 13 13 8 6 4 4 5 2 3 2 2 4 1 2 3 2 2 2 4 2 2 3 4 2 1 1 2 7 9 5 4 5 9 11 10 13
18 18 17 17 17 17 15 15 13 13 8 4 4 2 5 3 4 3 4 3 4 4 5 3 5 5 2 4 3 3 3 3 3 1 1 3 1 5 4 6 7 8 10 11 13
19 20 17 17 17 17 15 16 14 6 4 3 2 3 4 2 3 5 4 4 4 3 4 4 2 2 3 3 4 2 1 2 2 0 2 4 5 3 5 6 9 9 10 11 12
17 20 19 17 17 17 15 16 5 3 2 1 2 4 4 1 2 4 5 5 2 3 3 2 1 2 2 4 1 0 2 1 3 2 4 8 15 11 9 11 13 12 12 11 12
15 20 18 17 16 16 15 4 4 4 4 5 1 2 2 0 2 3 3 5 3 3 4 1 5 3 1 2 2 1 2 5 2 1 5 5 12 13 7 7 9 10 11 12 13
13 18 18 18 15 13 7 2 4 5 7 10 11 6 5 1 3 5 5 6 4 6 3 4 4 3 6 4 1 1 4 4 3 2 5 7 15 11 6 5 5 5 10 12 11
13 16 18 18 14 4 4 3 5 5 5 3 4 6 5 9 4 7 8 4 3 5 6 6 3 7 3 5 4 3 5 2 4 7 4 8 7 6 4 5 5 7 6 6 10
12 11 16 21 6 5 1 3 9 3 4 4 5 2 5 5 5 1 4 2 3 6 5 4 4 5 4 4 4 5 2 1 3 4 3 1 1 7 7 5 6 5 6 6 8
12 10 12 14 10 2 3 10 1 2 5 4 4 2 2 8 5 2 1 2 5 6 5 3 5 6 5 1 4 2 1 1 2 5 5 5 4 5 5 8 8 7 5 4 4
11 10 8 8 6 6 6 5 2 4 7 3 3 5 9 4 2 3 3 3 3 4 1 2 0 2 1 3 1 6 2 2 3 3 5 4 3 6 9 11 11 7 5 5 4
14 11 8 8 3 5 8 3 4 6 3 5 4 5 9 7 4 4 10 10 8 6 10 4 6 3 2 4 4 4 3 3 4 4 2 2 4 7 8 6 10 10 8 6 5
16 13 12 11 9 6 4 6 10 2 4 3 3 6 9 9 6 5 5 10 7 4 2 8 6 11 8 3 2 8 3 3 3 2 1 2 6 2 5 5 5 5 6 5 6
19 15 8 12 10 4 5 13 7 9 3 9 5 6 8 6 4 9 11 12 9 14 8 6 4 2 1 1 2 6 7 3 0 1 4 3 5 8 7 9 9 10 8 9 9
17 7 8 10 13 8 7 18 10 3 5 5 11 8 10 11 10 11 11 6 10 16 11 4 3 1 3 2 1 4 4 3 3 3 5 5 5 6 15 18 15 14 13 11 9
10 3 3 13 15 5 13 17 17 6 6 8 7 6 5 7 11 9 4 4 8 9 10 6 4 4 3 10 11 5 5 4 2 3 3 3 3 1 16 20 20 18 15 13 11
6 3 10 23 6 5 12 15 10 7 4 5 2 4 9 10 10 10 10 7 8 11 10 9 4 6 5 2 3 4 7 10 4 5 2 2 5 2 3 14 15 17 15 12 10
2 2 11 7 7 8 4 17 12 12 10 9 8 8 5 9 7 13 6 1 10 12 15 11 7 4 4 3 3 7 11 7 2 1 7 4 3 1 2 6 12 14 14 12 12
2 4 2 4 4 5 16 16 24 13 16 8 6 6 6 8 7 4 6 3 7 6 3 8 6 11 8 2 4 6 10 15 13 6 9 12 9 3 5 7 12 13 13 15 13
4 4 5 6 9 7 12 10 20 18 15 13 14 16 11 9 7 7 6 3 4 7 4 7 8 13 14 3 4 4 7 15 20 22 10 8 16 21 11 9 12 14 13 15 14
4 3 3 3 5 21 16 19 23 22 19 18 18 19 19 18 12 10 8 7 7 8 10 5 7 4 8 8 12 15 15 16 21 22 23 22 26 16 13 7 9 15 16 17 18
13 7 3 8 6 12 16 23 23 22 18 26 20 21 20 21 19 14 9 3 4 7 14 9 8 5 10 3 4 12 22 22 15 14 21 18 28 13 10 17 19 17 17 19 20
Wind_Direction
22 20 16 12 7 4 3 0 354 352 348 342 338 338 338 331 326 275 295 316 305 323 329 324 8 90 79 83 29 262 213 197 164 180 126 148 195 155 85 183 191 184 262 94 142
11 12 8 4 4 360 357 356 351 349 344 340 335 335 335 332 308 220 329 347 333 342 301 350 17 33 97 60 30 261 233 137 111 138 147 174 213 162 206 204 219 214 174 134 157
356 359 359 357 355 354 351 348 346 343 341 337 333 332 331 327 261 102 352 16 347 341 339 30 94 23 98 37 23 56 331 134 148 141 196 173 204 195 232 242 255 233 196 175 177
343 344 346 346 346 346 344 342 339 338 336 335 331 330 327 310 281 122 356 44 358 344 264 42 194 143 111 143 52 170 87 81 131 126 166 196 145 224 233 262 91 216 179 176 189
336 332 330 333 336 336 336 335 332 331 331 330 328 334 335 241 270 249 33 305 18 73 49 26 122 158 143 120 151 106 130 135 128 156 226 191 239 266 251 244 213 174 185 195 198
337 330 326 324 325 327 326 327 326 324 325 324 322 332 288 257 193 158 55 99 83 70 54 27 51 61 99 81 343 83 132 145 188 178 185 259 243 251 154 143 219 214 216 208 207
346 333 322 321 320 319 320 320 319 318 315 312 312 330 260 272 192 181 126 107 66 87 103 62 101 273 134 128 111 137 203 193 189 186 202 297 234 232 226 212 229 217 220 212 213
346 342 330 318 317 317 316 316 313 311 303 293 300 299 267 242 215 193 164 108 88 80 93 87 102 99 0 120 160 214 229 218 109 191 138 264 137 186 188 220 234 225 217 216 217
345 341 337 326 318 318 313 313 308 295 277 270 287 266 258 274 210 186 178 171 130 85 79 90 73 73 172 222 195 188 228 248 184 149 289 244 285 168 193 223 251 239 224 220 223
340 339 337 332 323 320 315 314 286 273 244 229 226 254 217 191 132 160 156 150 151 144 169 182 160 196 183 231 294 217 247 223 280 107 250 264 267 270 250 254 256 249 233 223 223
335 334 336 335 330 322 338 359 233 194 209 241 149 278 288 358 144 172 157 146 150 209 228 87 232 203 124 48 64 93 288 290 290 65 289 264 282 287 292 239 250 240 226 220 223
323 329 331 335 327 320 347 12 47 342 291 235 237 260 249 249 208 180 169 198 197 215 184 211 240 108 121 134 161 224 279 275 270 260 287 307 296 288 245 245 248 235 217 221 222
304 318 327 332 324 348 343 72 330 322 261 248 206 223 207 187 232 190 194 169 200 192 208 253 70 144 173 170 216 225 263 283 308 320 256 297 262 210 192 242 236 235 235 229 224
288 309 322 330 317 331 49 321 327 198 274 194 189 198 180 178 218 87 182 219 166 219 188 254 127 182 189 225 232 265 174 185 310 309 286 273 271 205 198 236 221 205 209 220 215
268 290 313 329 305 261 300 332 358 203 282 106 146 84 153 201 117 123 351 188 201 169 203 115 180 184 211 240 199 42 142 326 284 271 288 189 254 136 176 216 203 197 191 194 200
256 271 298 319 295 278 313 338 191 227 245 147 138 156 162 195 117 119 171 80 80 143 172 113 92 235 21 95 44 136 170 213 226 253 241 126 255 193 186 208 183 187 184 171 170
248 251 241 279 282 306 325 189 207 234 100 169 171 171 184 181 175 192 185 183 192 187 209 172 195 155 184 158 136 200 215 217 208 206 278 114 235 273 191 180 180 176 169 167 168
242 232 235 238 277 273 298 195 223 296 219 104 127 152 186 168 196 181 197 212 210 204 150 211 209 184 166 240 245 191 256 274 260 241 34 152 230 213 194 169 167 162 159 175 187
221 213 233 239 240 220 229 215 217 203 164 166 144 183 188 188 214 197 223 235 221 199 218 197 217 122 81 124 253 156 216 18 275 139 270 202 244 251 201 201 199 198 196 193 188
189 190 233 228 193 174 211 228 215 202 153 181 210 207 193 184 188 196 196 213 214 201 219 191 210 135 119 174 133 256 130 173 208 226 243 206 258 226 189 198 196 197 201 194 194
187 168 201 172 158 197 217 220 231 218 203 193 227 183 212 183 208 199 209 203 212 185 212 181 240 124 170 207 192 167 202 217 297 247 269 293 235 229 201 195 192 196 196 193 194
181 206 168 154 179 211 219 212 223 250 184 228 254 226 202 188 195 215 225 234 174 160 186 193 239 212 200 112 295 255 229 201 229 187 235 310 279 150 216 201 197 194 191 192 195
234 144 176 193 208 207 221 219 233 222 216 204 215 220 184 186 210 211 197 20 174 179 170 176 214 210 195 184 187 220 203 212 120 130 212 202 234 81 219 213 203 200 194 195 200
154 201 159 204 247 247 217 215 215 232 245 238 232 172 171 206 214 211 230 196 189 217 335 183 205 230 237 73 119 198 197 204 210 217 225 229 267 272 222 218 203 209 210 203 203
202 226 176 184 220 207 205 221 207 220 217 214 230 222 199 204 201 226 204 188 183 200 202 207 241 232 248 247 198 220 200 196 210 227 227 244 231 251 253 227 218 217 212 214 213
251 186 179 177 179 206 218 222 222 215 220 218 232 222 225 229 217 217 194 207 209 177 190 201 233 208 252 239 231 248 230 207 216 234 245 261 269 251 265 272 235 222 215 217 217
228 256 268 163 183 188 220 220 222 216 217 234 225 229 228 232 232 255 222 248 248 190 192 183 214 206 250 181 237 258 226 211 210 214 219 228 245 242 237 236 239 233 223 223 219